This demonstration page uses our WeatherBlox Daily Observations layout. Learn more.

Left ArrowRight Arrow

39.08367, -84.50855

Hourly Observations for March 31, 2020

Temp ( °F °C ) Dew Point ( °F °C ) Humidity (%) Winds ( mph kmh ) Pressure ( in mb ) Visibility ( mi km ) Precip ( " mm )
12:53 am 00:53 Clear 45 7.2 37 2.8 74 74 NNE 5 7 30.07 1018 10 16 N/A
1:53 am 01:53 Clear 45 7.2 35 1.7 68 68 N 5 7 30.07 1018 10 16 N/A
2:53 am 02:53 Clear 45 7.2 35 1.7 68 68 N 7 11 30.07 1018 10 16 N/A
3:53 am 03:53 Clear 43 6.1 34 1.1 71 71 N 7 11 30.06 1018 10 16 N/A
4:53 am 04:53 Clear 43 6.1 34 1.1 71 71 N 5 7 30.04 1017 10 16 N/A
5:53 am 05:53 Clear 42 5.6 34 1.1 73 73 NNE 5 7 30.03 1017 10 16 N/A
6:53 am 06:53 Clear 42 5.6 33 0.6 71 71 N 7 11 30.03 1017 10 16 N/A
7:53 am 07:53 Sunny 41 5 33 0.6 73 73 NNE 5 7 29.99 1016 10 16 N/A
8:53 am 08:53 Mostly Sunny 42 5.6 35 1.7 76 76 NNE 6 9 30.00 1016 10 16 N/A
9:53 am 09:53 Cloudy 43 6.1 35 1.7 74 74 NE 7 11 29.98 1015 10 16 N/A
10:53 am 10:53 Cloudy 44 6.7 36 2.2 73 73 NE 6 9 29.97 1015 10 16 N/A
11:53 am 11:53 Cloudy 45 7.2 36 2.2 71 71 ENE 7 11 29.93 1014 10 16 N/A
12:53 pm 12:53 Cloudy 47 8.3 37 2.8 69 69 NNE 5 7 29.91 1013 10 16 N/A
1:48 pm 13:48 Cloudy 46 8 36 2 66 66 NE 5 7 29.91 1013 10 16 N/A
1:53 pm 13:53 Cloudy 47 8.3 36 2.2 66 66 NE 5 7 29.90 1013 10 16 N/A
2:00 pm 14:00 Cloudy 47 8.3 36 2.2 66 66 NNE 3 6 29.91 1013 10 16 N/A
2:53 pm 14:53 Cloudy 47 8.3 36 2.2 66 66 N 7 11 29.89 1012 10 16 N/A
3:00 pm 15:00 Cloudy 47 8.3 36 2.2 66 66 N 7 11 29.89 1012 10 16 N/A
3:53 pm 15:53 Cloudy 47 8.3 36 2.2 66 66 N 8 13 29.87 1012 10 16 N/A
4:53 pm 16:53 Cloudy 47 8.3 36 2.2 66 66 NNE 7 11 29.85 1011 10 16 N/A
5:53 pm 17:53 Cloudy 47 8.3 35 1.7 63 63 N 7 11 29.86 1011 10 16 N/A
6:53 pm 18:53 Cloudy 47 8.3 34 1.1 61 61 N 8 13 29.87 1012 10 16 N/A
7:53 pm 19:53 Cloudy 46 7.8 34 1.1 63 63 N 9 15 29.89 1012 10 16 N/A
8:53 pm 20:53 Cloudy 46 7.8 34 1.1 63 63 N 7 11 29.91 1013 10 16 N/A
9:48 pm 21:48 Cloudy 45 7 37 3 76 76 NNW 12 19 29.93 1014 10 16 0.00 0.00
9:53 pm 21:53 Cloudy 44 6.7 37 2.8 76 76 NNW 12 19 29.92 1013 10 16 0.00 0.00
10:53 pm 22:53 Cloudy 42 5.6 39 3.9 89 89 N 8 13 29.92 1013 10 16 0.00 0.00
11:04 pm 23:04 Cloudy 43 6.1 39 3.9 86 86 N 3 6 29.94 1014 10 16 N/A
11:35 pm 23:35 Cloudy 43 6.1 39 3.9 86 86 N 6 9 29.94 1014 10 16 N/A
11:53 pm 23:53 Cloudy 43 6.1 40 4.4 89 89 NNW 3 6 29.93 1013 10 16 N/A

Powered by AerisWeather